When you browse on this site, cookies collect data to enhance your experience and personalize the content and advertising you see.
Visit our Privacy Policy to learn more. By continuing to use the site, you agree to this use of cookies and data.
  • In Österreich
  • Länderverzeichnis
  • Für 7 Tage
  • Wassertemperatur
  • Satellitenkarten
  • Wetterkarte
  • News
  • Widgets
  • user-avatar
    Anmelden

    Stündliche Wetter Kairo

    Heute, 20 Januar, Sonntag

    Zeit Temperatur Niederschläge Wind Luftdruck Luftfeuchtigkeit
    00:00 +12°C° 0 mm 4 m/S 762 mmHg 67%
    01:00 +11°C° 0 mm 3 m/S 761 mmHg 68%
    02:00 +11°C° 0 mm 4 m/S 761 mmHg 70%
    03:00 +11°C° 0 mm 4 m/S 761 mmHg 71%
    04:00 +11°C° 0 mm 3 m/S 761 mmHg 72%
    05:00 +10°C° 0 mm 3 m/S 761 mmHg 73%
    06:00 +11°C° 0 mm 3 m/S 761 mmHg 71%
    07:00 +12°C° 0 mm 2 m/S 761 mmHg 70%
    08:00 +12°C° 0 mm 2 m/S 761 mmHg 68%
    09:00 +13°C° 0 mm 3 m/S 761 mmHg 61%
    10:00 +14°C° 0 mm 3 m/S 761 mmHg 54%
    11:00 +17°C° 0 mm 4 m/S 760 mmHg 47%
    12:00 +17°C° 0 mm 3 m/S 760 mmHg 43%
    13:00 +18°C° 0 mm 3 m/S 760 mmHg 39%
    14:00 +19°C° 0 mm 2 m/S 759 mmHg 35%
    15:00 +18°C° 0 mm 2 m/S 759 mmHg 36%
    16:00 +19°C° 0 mm 1 m/S 759 mmHg 36%
    17:00 +19°C° 0 mm 1 m/S 759 mmHg 37%
    18:00 +17°C° 0 mm 2 m/S 759 mmHg 38%
    19:00 +17°C° 0 mm 2 m/S 759 mmHg 39%
    20:00 +16°C° 0 mm 3 m/S 759 mmHg 39%
    21:00 +16°C° 0 mm 2 m/S 759 mmHg 39%
    22:00 +16°C° 0 mm 1 m/S 759 mmHg 39%
    23:00 +16°C° 0 mm 1 m/S 759 mmHg 40%

    Morgen, 21 Januar, Montag

    Zeit Temperatur Niederschläge Wind Luftdruck Luftfeuchtigkeit
    00:00 +16°C° 0 mm 1 m/S 759 mmHg 42%
    01:00 +15°C° 0 mm 1 m/S 759 mmHg 44%
    02:00 +14°C° 0 mm 0 m/S 759 mmHg 46%
    03:00 +14°C° 0 mm 0 m/S 759 mmHg 47%
    04:00 +13°C° 0 mm 0 m/S 759 mmHg 49%
    05:00 +13°C° 0 mm 0 m/S 759 mmHg 50%
    06:00 +14°C° 0 mm 1 m/S 759 mmHg 49%
    07:00 +14°C° 0 mm 1 m/S 759 mmHg 49%
    08:00 +15°C° 0 mm 1 m/S 759 mmHg 48%
    09:00 +18°C° 0 mm 1 m/S 759 mmHg 42%
    10:00 +19°C° 0 mm 1 m/S 759 mmHg 37%
    11:00 +21°C° 0 mm 1 m/S 759 mmHg 31%
    12:00 +20°C° 0 mm 0 m/S 759 mmHg 28%
    13:00 +21°C° 0 mm 0 m/S 758 mmHg 25%
    14:00 +22°C° 0 mm 0 m/S 757 mmHg 22%
    15:00 +21°C° 0 mm 0 m/S 757 mmHg 23%
    16:00 +23°C° 0 mm 1 m/S 757 mmHg 24%
    17:00 +22°C° 0 mm 1 m/S 757 mmHg 25%
    18:00 +21°C° 0 mm 1 m/S 758 mmHg 27%
    19:00 +20°C° 0 mm 1 m/S 758 mmHg 29%
    20:00 +18°C° 0 mm 2 m/S 758 mmHg 31%
    21:00 +17°C° 0 mm 2 m/S 758 mmHg 34%
    22:00 +16°C° 0 mm 2 m/S 758 mmHg 38%
    23:00 +15°C° 0 mm 2 m/S 758 mmHg 41%

    übermorgen, 22 Januar, Dienstag

    Zeit Temperatur Niederschläge Wind Luftdruck Luftfeuchtigkeit
    00:00 +15°C° 0 mm 2 m/S 758 mmHg 44%
    01:00 +15°C° 0 mm 2 m/S 758 mmHg 46%
    02:00 +14°C° 0 mm 2 m/S 758 mmHg 48%
    03:00 +14°C° 0 mm 2 m/S 758 mmHg 52%
    04:00 +13°C° 0 mm 2 m/S 758 mmHg 56%
    05:00 +13°C° 0 mm 2 m/S 758 mmHg 60%
    06:00 +13°C° 0 mm 2 m/S 758 mmHg 60%
    07:00 +13°C° 0 mm 2 m/S 758 mmHg 61%
    08:00 +13°C° 0 mm 2 m/S 759 mmHg 62%
    09:00 +15°C° 0 mm 2 m/S 759 mmHg 57%
    10:00 +17°C° 0 mm 2 m/S 759 mmHg 51%
    11:00 +18°C° 0 mm 2 m/S 759 mmHg 45%
    12:00 +20°C° 0 mm 2 m/S 759 mmHg 40%
    13:00 +21°C° 0 mm 2 m/S 758 mmHg 36%
    14:00 +23°C° 0 mm 2 m/S 758 mmHg 32%
    15:00 +21°C° 0 mm 2 m/S 758 mmHg 32%
    16:00 +21°C° 0 mm 2 m/S 758 mmHg 32%
    17:00 +21°C° 0 mm 2 m/S 758 mmHg 32%
    18:00 +19°C° 0 mm 3 m/S 758 mmHg 40%
    19:00 +18°C° 0 mm 4 m/S 759 mmHg 48%
    20:00 +16°C° 0 mm 5 m/S 759 mmHg 55%
    21:00 +15°C° 0 mm 5 m/S 759 mmHg 61%
    22:00 +14°C° 0 mm 4 m/S 759 mmHg 67%
    23:00 +14°C° 0 mm 4 m/S 759 mmHg 73%

    23 Januar, Mittwoch

    Zeit Temperatur Niederschläge Wind Luftdruck Luftfeuchtigkeit
    00:00 +13°C° 0 mm 3 m/S 759 mmHg 75%
    01:00 +13°C° 0 mm 3 m/S 759 mmHg 78%
    02:00 +12°C° 0 mm 3 m/S 759 mmHg 80%
    03:00 +12°C° 0 mm 3 m/S 758 mmHg 81%
    04:00 +12°C° 0 mm 3 m/S 758 mmHg 82%
    05:00 +12°C° 0 mm 3 m/S 758 mmHg 83%
    06:00 +12°C° 0 mm 3 m/S 758 mmHg 80%
    07:00 +12°C° 0 mm 3 m/S 758 mmHg 78%
    08:00 +13°C° 0 mm 3 m/S 758 mmHg 76%
    09:00 +16°C° 0 mm 3 m/S 758 mmHg 64%
    10:00 +18°C° 0 mm 4 m/S 758 mmHg 51%
    11:00 +20°C° 0 mm 4 m/S 758 mmHg 39%
    12:00 +21°C° 0 mm 4 m/S 757 mmHg 34%
    13:00 +22°C° 0 mm 3 m/S 756 mmHg 29%
    14:00 +24°C° 0 mm 3 m/S 755 mmHg 24%
    15:00 +22°C° 0 mm 3 m/S 755 mmHg 24%
    16:00 +23°C° 0 mm 2 m/S 754 mmHg 24%
    17:00 +23°C° 0 mm 2 m/S 754 mmHg 23%
    18:00 +21°C° 0 mm 3 m/S 754 mmHg 26%
    19:00 +20°C° 0 mm 3 m/S 754 mmHg 28%
    20:00 +19°C° 0 mm 3 m/S 755 mmHg 31%
    21:00 +18°C° 0 mm 3 m/S 754 mmHg 29%
    22:00 +18°C° 0 mm 3 m/S 754 mmHg 27%
    23:00 +18°C° 0 mm 3 m/S 754 mmHg 25%

    24 Januar, Donnerstag

    Zeit Temperatur Niederschläge Wind Luftdruck Luftfeuchtigkeit
    00:00 +18°C° 0 mm 3 m/S 753 mmHg 23%
    01:00 +18°C° 0 mm 4 m/S 753 mmHg 20%
    02:00 +17°C° 0 mm 4 m/S 752 mmHg 17%
    03:00 +17°C° 0 mm 5 m/S 752 mmHg 16%
    04:00 +19°C° 0 mm 5 m/S 751 mmHg 15%
    05:00 +19°C° 0 mm 5 m/S 751 mmHg 13%
    06:00 +20°C° 0 mm 5 m/S 751 mmHg 13%
    07:00 +20°C° 0 mm 5 m/S 751 mmHg 13%
    08:00 +20°C° 0 mm 5 m/S 751 mmHg 12%
    09:00 +22°C° 0 mm 8 m/S 751 mmHg 12%
    10:00 +24°C° 0 mm 11 m/S 751 mmHg 11%
    11:00 +27°C° 0 mm 13 m/S 751 mmHg 10%
    12:00 +27°C° 0 mm 12 m/S 751 mmHg 9%
    13:00 +27°C° 0 mm 11 m/S 751 mmHg 9%
    14:00 +28°C° 0 mm 10 m/S 751 mmHg 9%
    15:00 +26°C° 0 mm 9 m/S 752 mmHg 13%
    16:00 +24°C° 0 mm 7 m/S 752 mmHg 16%
    17:00 +22°C° 0 mm 6 m/S 753 mmHg 20%
    18:00 +21°C° 0 mm 5 m/S 753 mmHg 23%
    19:00 +20°C° 0 mm 5 m/S 754 mmHg 26%
    20:00 +19°C° 0 mm 4 m/S 755 mmHg 29%
    21:00 +18°C° 0 mm 4 m/S 755 mmHg 30%
    22:00 +17°C° 0 mm 3 m/S 755 mmHg 31%
    23:00 +17°C° 0 mm 3 m/S 755 mmHg 32%

    25 Januar, Freitag

    Zeit Temperatur Niederschläge Wind Luftdruck Luftfeuchtigkeit
    00:00 +16°C° 0 mm 3 m/S 756 mmHg 32%
    01:00 +16°C° 0 mm 2 m/S 756 mmHg 33%
    02:00 +15°C° 0 mm 2 m/S 756 mmHg 33%
    03:00 +15°C° 0 mm 2 m/S 756 mmHg 34%
    04:00 +15°C° 0 mm 2 m/S 756 mmHg 34%
    05:00 +14°C° 0 mm 2 m/S 756 mmHg 35%
    06:00 +15°C° 0 mm 2 m/S 756 mmHg 34%
    07:00 +15°C° 0 mm 2 m/S 756 mmHg 34%
    08:00 +14°C° 0 mm 3 m/S 757 mmHg 33%
    09:00 +17°C° 0 mm 3 m/S 756 mmHg 29%
    10:00 +19°C° 0 mm 4 m/S 756 mmHg 25%
    11:00 +21°C° 0 mm 5 m/S 756 mmHg 22%
    12:00 +22°C° 0 mm 6 m/S 756 mmHg 20%
    13:00 +23°C° 0 mm 6 m/S 755 mmHg 19%
    14:00 +23°C° 0 mm 7 m/S 754 mmHg 18%
    15:00 +23°C° 0 mm 6 m/S 754 mmHg 18%
    16:00 +22°C° 0 mm 6 m/S 754 mmHg 19%
    17:00 +22°C° 0 mm 6 m/S 754 mmHg 20%
    18:00 +21°C° 0 mm 6 m/S 754 mmHg 21%
    19:00 +20°C° 0 mm 6 m/S 755 mmHg 22%
    20:00 +19°C° 0 mm 5 m/S 755 mmHg 23%
    21:00 +19°C° 0 mm 5 m/S 755 mmHg 23%
    22:00 +17°C° 0 mm 5 m/S 755 mmHg 23%
    23:00 +16°C° 0 mm 5 m/S 756 mmHg 23%
    Mehr zeigen